"read_dt","SO2 (ppb)","flags","PMT voltage (V)","lamp voltage (V)","lamp intensity (Hz)","internal temp (C)","react chamber temp (C)","sample flow (l/min)","pres (mmHg)","SO2 bkg (ppb)","SO2 coefficient"
2013-12-20 00:00:00,1936E-4,5C000000,-0724,0972,10750,026.3,045.3,0.400,754.6,01.17,0.508
2013-12-20 00:01:00,1725E-4,5C000000,-0724,0971,10795,026.3,045.3,0.401,754.6,01.17,0.508
2013-12-20 00:02:00,2435E-4,5C000000,-0724,0971,10787,026.3,045.3,0.400,754.6,01.17,0.508
2013-12-20 00:03:00,1855E-4,5C000000,-0724,0972,10674,026.3,045.3,0.400,754.5,01.17,0.508
2013-12-20 00:04:00,1820E-4,5C000000,-0724,0970,10661,026.3,045.3,0.400,754.6,01.17,0.508
2013-12-20 00:05:00,1965E-4,5C000000,-0724,0971,10752,026.3,045.3,0.400,754.6,01.17,0.508
2013-12-20 00:06:00,1421E-4,5C000000,-0724,0971,10821,026.3,045.3,0.401,754.6,01.17,0.508
2013-12-20 00:07:00,1474E-4,5C000000,-0724,0971,10685,026.3,045.3,0.400,754.6,01.17,0.508
2013-12-20 00:08:00,1953E-4,5C000000,-0724,0972,10805,026.3,045.3,0.400,754.5,01.17,0.508
2013-12-20 00:09:00,1819E-4,5C000000,-0724,0971,10868,026.3,045.3,0.401,754.6,01.17,0.508
2013-12-20 00:10:00,2246E-4,5C000000,-0724,0972,10812,026.3,045.3,0.400,754.5,01.17,0.508
2013-12-20 00:11:00,1669E-4,5C000000,-0724,0971,10842,026.3,045.3,0.400,754.6,01.17,0.508
2013-12-20 00:12:00,1367E-4,5C000000,-0724,0971,10885,026.3,045.3,0.401,754.6,01.17,0.508
2013-12-20 00:13:00,1774E-4,5C000000,-0724,0971,10795,026.3,045.3,0.400,754.6,01.17,0.508
2013-12-20 00:14:00,1325E-4,5C000000,-0724,0971,10727,026.3,045.3,0.401,754.6,01.17,0.508
2013-12-20 00:15:00,1315E-4,5C000000,-0724,0971,10892,026.3,045.3,0.401,754.6,01.17,0.508
2013-12-20 00:16:00,2211E-4,5C000000,-0724,0972,10812,026.3,045.3,0.400,754.6,01.17,0.508
2013-12-20 00:17:00,1328E-4,5C000000,-0724,0972,10781,026.3,045.3,0.401,754.6,01.17,0.508
2013-12-20 00:18:00,1116E-5,5C000000,-0724,0972,10714,026.3,045.3,0.400,754.6,01.17,0.508
2013-12-20 00:19:00,1143E-4,5C000000,-0724,0972,10822,026.3,045.3,0.400,754.6,01.17,0.508
2013-12-20 00:20:00,1448E-4,5C000000,-0724,0971,10906,026.3,045.3,0.401,754.6,01.17,0.508
2013-12-20 00:21:00,1085E-4,5C000000,-0724,0972,10878,026.3,045.3,0.400,754.6,01.17,0.508
2013-12-20 00:22:00,1453E-4,5C000000,-0724,0972,10711,026.3,045.3,0.400,754.6,01.17,0.508
2013-12-20 00:23:00,2086E-4,5C000000,-0724,0971,10792,026.3,045.3,0.401,754.6,01.17,0.508
2013-12-20 00:24:00,1968E-4,5C000000,-0724,0971,10803,026.3,045.3,0.400,754.6,01.17,0.508
2013-12-20 00:25:00,2217E-4,5C000000,-0724,0972,10928,026.3,045.3,0.401,754.6,01.17,0.508
2013-12-20 00:26:00,7008E-5,5C000000,-0724,0971,10697,026.3,045.3,0.400,754.6,01.17,0.508
2013-12-20 00:27:00,1495E-4,5C000000,-0724,0971,10857,026.3,045.3,0.400,754.6,01.17,0.508
2013-12-20 00:28:00,1587E-4,5C000000,-0724,0971,10818,026.3,045.3,0.401,754.6,01.17,0.508
2013-12-20 00:29:00,1657E-4,5C000000,-0724,0972,10839,026.3,045.3,0.400,754.6,01.17,0.508
2013-12-20 00:30:00,9069E-5,5C000000,-0724,0971,10778,026.3,045.3,0.400,754.6,01.17,0.508
2013-12-20 00:31:00,2000E-4,5C000000,-0724,0971,10913,026.3,045.3,0.401,754.6,01.17,0.508
2013-12-20 00:32:00,2027E-4,5C000000,-0724,0971,10572,026.3,045.3,0.400,754.6,01.17,0.508
2013-12-20 00:33:00,2472E-4,5C000000,-0724,0971,10599,026.3,045.3,0.400,754.6,01.17,0.508
2013-12-20 00:34:00,1630E-4,5C000000,-0724,0972,10746,026.3,045.3,0.400,754.6,01.17,0.508
2013-12-20 00:35:00,2352E-4,5C000000,-0724,0971,10592,026.3,045.3,0.400,754.6,01.17,0.508
2013-12-20 00:36:00,1524E-4,5C000000,-0724,0971,10859,026.3,045.3,0.401,754.6,01.17,0.508
2013-12-20 00:37:00,2163E-4,5C000000,-0724,0971,10817,026.3,045.3,0.400,754.6,01.17,0.508
2013-12-20 00:38:00,1513E-4,5C000000,-0724,0972,10787,026.3,045.3,0.400,754.6,01.17,0.508
2013-12-20 00:39:00,1294E-4,5C000000,-0724,0971,10748,026.3,045.3,0.401,754.6,01.17,0.508
2013-12-20 00:40:00,1024E-4,5C000000,-0724,0972,10793,026.3,045.3,0.400,754.6,01.17,0.508
2013-12-20 00:41:00,2321E-4,5C000000,-0724,0971,10732,026.3,045.3,0.400,754.6,01.17,0.508
2013-12-20 00:42:00,9759E-5,5C000000,-0724,0972,10927,026.3,045.3,0.401,754.6,01.17,0.508
2013-12-20 00:43:00,1844E-4,5C000000,-0724,0971,10771,026.3,045.3,0.400,754.6,01.17,0.508
2013-12-20 00:44:00,2038E-4,5C000000,-0724,0972,10901,026.3,045.3,0.400,754.6,01.17,0.508
2013-12-20 00:45:00,2045E-4,5C000000,-0724,0972,10894,026.3,045.3,0.401,754.6,01.17,0.508
2013-12-20 00:46:00,1747E-4,5C000000,-0724,0972,10892,026.3,045.3,0.400,754.5,01.17,0.508
2013-12-20 00:47:00,2439E-4,5C000000,-0724,0972,10851,026.4,045.3,0.400,754.5,01.17,0.508
2013-12-20 00:48:00,2269E-4,5C000000,-0724,0972,10865,026.3,045.3,0.400,754.5,01.17,0.508
2013-12-20 00:49:00,1737E-4,5C000000,-0724,0971,10865,026.3,045.3,0.400,754.5,01.17,0.508
2013-12-20 00:50:00,1512E-4,5C000000,-0724,0971,10824,026.3,045.3,0.401,754.5,01.17,0.508
2013-12-20 00:51:00,1743E-4,5C000000,-0724,0972,10806,026.3,045.3,0.400,754.4,01.17,0.508
2013-12-20 00:52:00,1641E-4,5C000000,-0724,0972,10698,026.4,045.3,0.400,754.4,01.17,0.508
2013-12-20 00:53:00,1995E-4,5C000000,-0724,0973,10827,026.4,045.3,0.401,754.4,01.17,0.508
2013-12-20 00:54:00,1107E-4,5C000000,-0724,0971,10844,026.4,045.3,0.401,754.4,01.17,0.508
2013-12-20 00:55:00,1947E-4,5C000000,-0724,0972,10850,026.4,045.3,0.400,754.4,01.17,0.508
2013-12-20 00:56:00,1026E-4,5C000000,-0724,0971,10898,026.4,045.3,0.400,754.4,01.17,0.508
2013-12-20 00:57:00,1203E-4,5C000000,-0724,0971,10951,026.3,045.2,0.400,754.4,01.17,0.508
2013-12-20 00:58:00,1903E-4,5C000000,-0724,0972,10742,026.4,045.3,0.400,754.4,01.17,0.508
2013-12-20 00:59:00,1888E-4,5C000000,-0724,0971,10603,026.3,045.3,0.401,754.4,01.17,0.508
2013-12-20 01:00:00,1664E-4,5C000000,-0724,0972,10778,026.3,045.3,0.400,754.4,01.17,0.508
2013-12-20 01:01:00,1984E-4,5C000000,-0724,0971,10883,026.3,045.3,0.400,754.4,01.17,0.508
2013-12-20 01:02:00,1028E-4,5C000000,-0724,0972,10941,026.3,045.3,0.401,754.4,01.17,0.508
2013-12-20 01:03:00,1338E-4,5C000000,-0724,0972,10821,026.3,045.3,0.400,754.4,01.17,0.508
2013-12-20 01:04:00,1448E-4,5C000000,-0724,0971,10885,026.3,045.3,0.400,754.4,01.17,0.508
2013-12-20 01:05:00,1267E-4,5C000000,-0724,0971,10932,026.3,045.3,0.400,754.4,01.17,0.508
2013-12-20 01:06:00,1315E-4,5C000000,-0724,0971,10623,026.3,045.3,0.401,754.4,01.17,0.508
2013-12-20 01:07:00,1761E-4,5C000000,-0724,0971,10701,026.3,045.3,0.400,754.3,01.17,0.508
2013-12-20 01:08:00,1837E-4,5C000000,-0724,0972,10725,026.3,045.3,0.400,754.3,01.17,0.508
2013-12-20 01:09:00,2581E-4,5C000000,-0724,0971,10750,026.3,045.3,0.401,754.3,01.17,0.508
2013-12-20 01:10:00,1483E-4,5C000000,-0724,0972,10843,026.3,045.3,0.400,754.3,01.17,0.508
2013-12-20 01:11:00,2113E-4,5C000000,-0724,0972,10813,026.3,045.3,0.400,754.3,01.17,0.508
2013-12-20 01:12:00,2001E-4,5C000000,-0724,0971,10896,026.3,045.3,0.401,754.3,01.17,0.508
2013-12-20 01:13:00,1319E-4,5C000000,-0724,0972,10881,026.3,045.3,0.400,754.3,01.17,0.508
2013-12-20 01:14:00,2392E-4,5C000000,-0724,0973,10864,026.3,045.3,0.400,754.3,01.17,0.508
2013-12-20 01:15:00,1982E-4,5C000000,-0724,0973,10761,026.3,045.3,0.401,754.3,01.17,0.508
2013-12-20 01:16:00,1767E-4,5C000000,-0724,0971,10764,026.3,045.3,0.400,754.3,01.17,0.508
2013-12-20 01:17:00,1934E-4,5C000000,-0724,0972,10570,026.3,045.3,0.400,754.3,01.17,0.508
2013-12-20 01:18:00,1644E-4,5C000000,-0724,0972,10733,026.3,045.3,0.401,754.3,01.17,0.508
2013-12-20 01:19:00,2407E-4,5C000000,-0724,0971,10872,026.4,045.3,0.400,754.3,01.17,0.508
2013-12-20 01:20:00,2082E-4,5C000000,-0724,0972,10873,026.3,045.3,0.400,754.3,01.17,0.508
2013-12-20 01:21:00,2105E-4,5C000000,-0724,0972,10832,026.3,045.3,0.401,754.3,01.17,0.508
2013-12-20 01:22:00,1920E-4,5C000000,-0724,0971,10620,026.3,045.3,0.400,754.3,01.17,0.508
2013-12-20 01:23:00,1615E-4,5C000000,-0724,0971,10648,026.3,045.3,0.400,754.3,01.17,0.508
2013-12-20 01:24:00,2561E-4,5C000000,-0724,0970,10940,026.3,045.3,0.400,754.3,01.17,0.508
2013-12-20 01:25:00,1752E-4,5C000000,-0724,0971,10849,026.3,045.3,0.400,754.3,01.17,0.508
2013-12-20 01:26:00,2020E-4,5C000000,-0724,0972,10768,026.3,045.3,0.400,754.3,01.17,0.508
2013-12-20 01:27:00,2048E-4,5C000000,-0724,0971,10794,026.3,045.3,0.400,754.3,01.17,0.508
2013-12-20 01:28:00,2270E-4,5C000000,-0724,0971,10759,026.3,045.3,0.400,754.2,01.17,0.508
2013-12-20 01:29:00,1673E-4,5C000000,-0724,0972,10685,026.3,045.3,0.400,754.2,01.17,0.508
2013-12-20 01:30:00,3127E-4,5C000000,-0724,0971,10850,026.3,045.3,0.400,754.2,01.17,0.508
2013-12-20 01:31:00,2088E-4,5C000000,-0724,0971,10922,026.3,045.3,0.400,754.1,01.17,0.508
2013-12-20 01:32:00,1812E-4,5C000000,-0724,0972,10854,026.3,045.3,0.400,754.1,01.17,0.508
2013-12-20 01:33:00,1244E-4,5C000000,-0724,0972,10711,026.3,045.3,0.401,754.1,01.17,0.508
2013-12-20 01:34:00,1965E-4,5C000000,-0724,0972,10927,026.3,045.3,0.400,754.1,01.17,0.508
2013-12-20 01:35:00,1205E-4,5C000000,-0724,0971,10754,026.3,045.3,0.400,754.1,01.17,0.508
2013-12-20 01:36:00,2312E-4,5C000000,-0724,0971,10788,026.4,045.3,0.401,754.1,01.17,0.508
2013-12-20 01:37:00,1575E-4,5C000000,-0724,0971,10688,026.4,045.3,0.400,754.1,01.17,0.508
2013-12-20 01:38:00,1568E-4,5C000000,-0724,0971,10912,026.4,045.3,0.400,754.1,01.17,0.508
2013-12-20 01:39:00,2272E-4,5C000000,-0724,0972,10726,026.3,045.3,0.400,754.1,01.17,0.508
2013-12-20 01:40:00,1708E-4,5C000000,-0724,0971,10875,026.4,045.3,0.400,754.1,01.17,0.508
2013-12-20 01:41:00,2125E-4,5C000000,-0724,0972,10814,026.4,045.3,0.400,754.1,01.17,0.508
2013-12-20 01:42:00,2307E-4,5C000000,-0724,0972,10879,026.3,045.3,0.400,754.1,01.17,0.508
2013-12-20 01:43:00,1771E-4,5C000000,-0724,0972,10823,026.4,045.3,0.400,754.1,01.17,0.508
2013-12-20 01:44:00,1441E-4,5C000000,-0724,0972,10749,026.3,045.3,0.400,754.1,01.17,0.508
2013-12-20 01:45:00,1776E-4,5C000000,-0724,0971,10790,026.3,045.3,0.400,754.1,01.17,0.508
2013-12-20 01:46:00,1060E-4,5C000000,-0724,0972,10557,026.3,045.3,0.400,754.1,01.17,0.508
2013-12-20 01:47:00,1765E-4,5C000000,-0724,0972,10899,026.3,045.3,0.400,754.1,01.17,0.508
2013-12-20 01:48:00,2291E-4,5C000000,-0724,0971,10774,026.3,045.3,0.400,754.1,01.17,0.508
2013-12-20 01:49:00,1506E-4,5C000000,-0724,0972,10927,026.3,045.3,0.401,754.1,01.17,0.508
2013-12-20 01:50:00,9139E-5,5C000000,-0724,0972,10879,026.3,045.3,0.400,754.1,01.17,0.508
2013-12-20 01:51:00,1458E-4,5C000000,-0724,0972,10905,026.3,045.3,0.400,754.1,01.17,0.508
2013-12-20 01:52:00,1681E-4,5C000000,-0724,0972,10724,026.3,045.3,0.401,754.1,01.17,0.508
2013-12-20 01:53:00,1864E-4,5C000000,-0724,0972,10852,026.3,045.3,0.400,754.1,01.17,0.508
2013-12-20 01:54:00,2177E-4,5C000000,-0724,0971,10854,026.3,045.3,0.400,754.1,01.17,0.508
2013-12-20 01:55:00,3685E-4,5C000000,-0724,0971,10832,026.3,045.3,0.401,754.1,01.17,0.508
2013-12-20 01:56:00,4189E-4,5C000000,-0724,0972,10736,026.3,045.3,0.400,754.1,01.17,0.508
2013-12-20 01:57:00,3497E-4,5C000000,-0724,0971,10794,026.3,045.3,0.400,754.1,01.17,0.508
2013-12-20 01:58:00,4931E-4,5C000000,-0724,0971,10900,026.3,045.3,0.400,754.1,01.17,0.508
2013-12-20 01:59:00,4169E-4,5C000000,-0724,0971,10847,026.3,045.3,0.400,754.1,01.17,0.508
2013-12-20 02:00:00,4776E-4,5C000000,-0724,0972,10819,026.3,045.3,0.400,754.1,01.17,0.508
2013-12-20 02:01:00,4365E-4,5C000000,-0724,0971,10914,026.3,045.3,0.400,754.1,01.17,0.508
2013-12-20 02:02:00,3057E-4,5C000000,-0724,0971,10753,026.3,045.3,0.400,754.1,01.17,0.508
2013-12-20 02:03:00,4185E-4,5C000000,-0724,0971,10778,026.3,045.3,0.400,754.1,01.17,0.508
2013-12-20 02:04:00,4269E-4,5C000000,-0724,0971,10880,026.3,045.3,0.400,754.1,01.17,0.508
2013-12-20 02:05:00,4904E-4,5C000000,-0724,0971,10809,026.3,045.3,0.400,754.1,01.17,0.508
2013-12-20 02:06:00,5380E-4,5C000000,-0724,0971,10808,026.3,045.3,0.400,754.0,01.17,0.508
2013-12-20 02:07:00,4655E-4,5C000000,-0724,0972,10839,026.3,045.3,0.400,754.0,01.17,0.508
2013-12-20 02:08:00,4487E-4,5C000000,-0724,0971,10846,026.3,045.3,0.400,754.1,01.17,0.508
2013-12-20 02:09:00,4511E-4,5C000000,-0724,0971,10749,026.3,045.3,0.400,754.0,01.17,0.508
2013-12-20 02:10:00,3931E-4,5C000000,-0724,0971,10761,026.3,045.3,0.400,754.0,01.17,0.508
2013-12-20 02:11:00,4279E-4,5C000000,-0724,0972,10842,026.3,045.3,0.401,754.0,01.17,0.508
2013-12-20 02:12:00,5101E-4,5C000000,-0724,0972,10897,026.3,045.3,0.400,754.0,01.17,0.508
2013-12-20 02:13:00,3950E-4,5C000000,-0724,0971,10886,026.3,045.3,0.400,754.0,01.17,0.508
2013-12-20 02:14:00,3674E-4,5C000000,-0724,0972,10667,026.3,045.2,0.400,754.0,01.17,0.508
2013-12-20 02:15:00,2770E-4,5C000000,-0724,0972,10721,026.3,045.3,0.400,754.0,01.17,0.508
2013-12-20 02:16:00,2729E-4,5C000000,-0724,0971,10656,026.3,045.3,0.400,754.0,01.17,0.508
2013-12-20 02:17:00,3057E-4,5C000000,-0724,0971,10893,026.3,045.3,0.400,754.0,01.17,0.508
2013-12-20 02:18:00,2371E-4,5C000000,-0724,0972,10755,026.3,045.3,0.400,754.0,01.17,0.508
2013-12-20 02:19:00,2015E-4,5C000000,-0724,0971,10758,026.3,045.3,0.400,754.0,01.17,0.508
2013-12-20 02:20:00,3112E-4,5C000000,-0724,0972,10791,026.3,045.3,0.400,754.0,01.17,0.508
2013-12-20 02:21:00,2791E-4,5C000000,-0724,0971,10921,026.3,045.3,0.400,754.0,01.17,0.508
2013-12-20 02:22:00,3207E-4,5C000000,-0724,0972,10796,026.3,045.3,0.400,753.9,01.17,0.508
2013-12-20 02:23:00,3139E-4,5C000000,-0724,0971,10938,026.3,045.3,0.400,754.0,01.17,0.508
2013-12-20 02:24:00,3207E-4,5C000000,-0724,0971,10953,026.4,045.3,0.400,753.9,01.17,0.508
2013-12-20 02:25:00,3733E-4,5C000000,-0724,0972,10954,026.3,045.3,0.400,753.9,01.17,0.508
2013-12-20 02:26:00,3507E-4,5C000000,-0724,0972,10935,026.3,045.3,0.400,753.9,01.17,0.508
2013-12-20 02:27:00,2433E-4,5C000000,-0724,0971,10790,026.4,045.3,0.400,753.9,01.17,0.508
2013-12-20 02:28:00,3398E-4,5C000000,-0724,0972,10951,026.4,045.3,0.400,753.9,01.17,0.508
2013-12-20 02:29:00,3587E-4,5C000000,-0724,0972,10905,026.3,045.3,0.400,753.9,01.17,0.508
2013-12-20 02:30:00,4052E-4,5C000000,-0724,0971,10792,026.3,045.3,0.400,753.9,01.17,0.508
2013-12-20 02:31:00,3685E-4,5C000000,-0724,0971,10699,026.4,045.3,0.400,753.9,01.17,0.508
2013-12-20 02:32:00,3275E-4,5C000000,-0724,0971,10731,026.3,045.3,0.400,753.9,01.17,0.508
2013-12-20 02:33:00,4276E-4,5C000000,-0724,0971,10746,026.3,045.3,0.400,753.9,01.17,0.508
2013-12-20 02:34:00,4044E-4,5C000000,-0724,0972,10837,026.3,045.3,0.400,753.8,01.17,0.508
2013-12-20 02:35:00,3286E-4,5C000000,-0724,0971,10801,026.3,045.3,0.400,753.8,01.17,0.508
2013-12-20 02:36:00,2857E-4,5C000000,-0724,0971,10757,026.3,045.3,0.400,753.9,01.17,0.508
2013-12-20 02:37:00,3284E-4,5C000000,-0724,0971,10892,026.3,045.3,0.400,753.9,01.17,0.508
2013-12-20 02:38:00,3177E-4,5C000000,-0724,0972,10724,026.3,045.3,0.400,753.9,01.17,0.508
2013-12-20 02:39:00,3219E-4,5C000000,-0724,0971,10768,026.3,045.3,0.400,753.9,01.17,0.508
2013-12-20 02:40:00,3976E-4,5C000000,-0724,0971,10905,026.3,045.3,0.400,753.9,01.17,0.508
2013-12-20 02:41:00,4536E-4,5C000000,-0724,0971,10776,026.3,045.3,0.400,753.9,01.17,0.508
2013-12-20 02:42:00,2637E-4,5C000000,-0724,0971,10849,026.3,045.3,0.400,753.9,01.17,0.508
2013-12-20 02:43:00,3611E-4,5C000000,-0724,0972,10941,026.4,045.3,0.400,753.9,01.17,0.508
2013-12-20 02:44:00,3873E-4,5C000000,-0724,0972,10968,026.4,045.3,0.400,753.9,01.17,0.508
2013-12-20 02:45:00,3606E-4,5C000000,-0724,0973,10869,026.4,045.3,0.400,753.8,01.17,0.508
2013-12-20 02:46:00,2586E-4,5C000000,-0724,0972,10847,026.4,045.3,0.400,753.8,01.17,0.508
2013-12-20 02:47:00,3814E-4,5C000000,-0724,0972,10811,026.4,045.3,0.400,753.8,01.17,0.508
2013-12-20 02:48:00,2863E-4,5C000000,-0724,0972,10716,026.4,045.3,0.400,753.8,01.17,0.508
2013-12-20 02:49:00,3675E-4,5C000000,-0724,0972,10836,026.4,045.3,0.400,753.8,01.17,0.508
2013-12-20 02:50:00,2788E-4,5C000000,-0724,0971,10786,026.4,045.3,0.400,753.8,01.17,0.508
2013-12-20 02:51:00,3290E-4,5C000000,-0724,0972,10827,026.4,045.3,0.400,753.8,01.17,0.508
2013-12-20 02:52:00,3513E-4,5C000000,-0724,0972,10680,026.3,045.3,0.400,753.8,01.17,0.508
2013-12-20 02:53:00,3177E-4,5C000000,-0724,0971,10707,026.3,045.3,0.400,753.8,01.17,0.508
2013-12-20 02:54:00,4526E-4,5C000000,-0724,0971,10629,026.4,045.3,0.400,753.8,01.17,0.508
2013-12-20 02:55:00,3885E-4,5C000000,-0724,0972,10896,026.4,045.3,0.400,753.8,01.17,0.508
2013-12-20 02:56:00,3336E-4,5C000000,-0724,0971,10647,026.4,045.3,0.400,753.8,01.17,0.508
2013-12-20 02:57:00,2508E-4,5C000000,-0724,0971,10789,026.4,045.3,0.400,753.7,01.17,0.508
2013-12-20 02:58:00,3152E-4,5C000000,-0724,0972,10691,026.4,045.3,0.400,753.7,01.17,0.508
2013-12-20 02:59:00,3750E-4,5C000000,-0724,0973,10683,026.4,045.3,0.400,753.7,01.17,0.508
2013-12-20 03:00:00,3373E-4,5C000000,-0724,0972,10819,026.4,045.3,0.400,753.7,01.17,0.508
2013-12-20 03:01:00,3151E-4,5C000000,-0724,0972,10801,026.4,045.3,0.400,753.7,01.17,0.508
2013-12-20 03:02:00,3207E-4,5C000000,-0724,0971,10835,026.3,045.3,0.400,753.7,01.17,0.508
2013-12-20 03:03:00,3717E-4,5C000000,-0724,0971,10884,026.4,045.3,0.400,753.7,01.17,0.508
2013-12-20 03:04:00,3714E-4,5C000000,-0724,0972,10772,026.4,045.3,0.400,753.7,01.17,0.508
2013-12-20 03:05:00,3531E-4,5C000000,-0724,0971,10674,026.4,045.3,0.400,753.7,01.17,0.508
2013-12-20 03:06:00,3286E-4,5C000000,-0724,0971,10893,026.4,045.3,0.400,753.7,01.17,0.508
2013-12-20 03:07:00,3777E-4,5C000000,-0724,0971,10938,026.3,045.3,0.400,753.6,01.17,0.508
2013-12-20 03:08:00,5099E-4,5C000000,-0724,0972,10811,026.4,045.3,0.400,753.7,01.17,0.508
2013-12-20 03:09:00,3767E-4,5C000000,-0724,0972,10721,026.4,045.3,0.400,753.6,01.17,0.508
2013-12-20 03:10:00,5318E-4,5C000000,-0724,0972,10806,026.4,045.3,0.400,753.6,01.17,0.508
2013-12-20 03:11:00,4309E-4,5C000000,-0724,0972,10838,026.3,045.3,0.400,753.6,01.17,0.508
2013-12-20 03:12:00,5344E-4,5C000000,-0724,0971,10619,026.3,045.3,0.400,753.6,01.17,0.508
2013-12-20 03:13:00,5020E-4,5C000000,-0724,0972,10778,026.4,045.3,0.400,753.5,01.17,0.508
2013-12-20 03:14:00,4376E-4,5C000000,-0724,0972,10779,026.3,045.3,0.400,753.5,01.17,0.508
2013-12-20 03:15:00,5714E-4,5C000000,-0724,0971,10787,026.4,045.3,0.400,753.5,01.17,0.508
2013-12-20 03:16:00,5462E-4,5C000000,-0724,0971,10882,026.4,045.3,0.400,753.5,01.17,0.508
2013-12-20 03:17:00,5605E-4,5C000000,-0724,0972,10865,026.3,045.3,0.400,753.5,01.17,0.508
2013-12-20 03:18:00,6727E-4,5C000000,-0724,0971,10854,026.4,045.3,0.400,753.5,01.17,0.508
2013-12-20 03:19:00,4717E-4,5C000000,-0724,0972,10894,026.4,045.3,0.400,753.5,01.17,0.508
2013-12-20 03:20:00,5192E-4,5C000000,-0724,0972,10756,026.4,045.3,0.400,753.5,01.17,0.508
2013-12-20 03:21:00,5300E-4,5C000000,-0724,0972,10771,026.4,045.3,0.400,753.5,01.17,0.508
2013-12-20 03:22:00,4624E-4,5C000000,-0724,0972,10735,026.4,045.3,0.400,753.5,01.17,0.508
2013-12-20 03:23:00,5535E-4,5C000000,-0724,0973,10777,026.4,045.3,0.400,753.5,01.17,0.508
2013-12-20 03:24:00,4742E-4,5C000000,-0724,0972,10778,026.4,045.3,0.400,753.5,01.17,0.508
2013-12-20 03:25:00,4862E-4,5C000000,-0724,0973,10808,026.4,045.3,0.400,753.4,01.17,0.508
2013-12-20 03:26:00,4448E-4,5C000000,-0724,0973,10853,026.4,045.3,0.400,753.5,01.17,0.508
2013-12-20 03:27:00,5002E-4,5C000000,-0724,0973,10699,026.4,045.3,0.400,753.4,01.17,0.508
2013-12-20 03:28:00,4005E-4,5C000000,-0724,0973,10938,026.4,045.3,0.399,753.4,01.17,0.508
2013-12-20 03:29:00,4483E-4,5C000000,-0724,0971,10775,026.4,045.3,0.400,753.4,01.17,0.508
2013-12-20 03:30:00,5717E-4,5C000000,-0724,0971,10831,026.4,045.3,0.400,753.4,01.17,0.508
2013-12-20 03:31:00,6393E-4,5C000000,-0724,0972,10864,026.4,045.3,0.400,753.4,01.17,0.508
2013-12-20 03:32:00,6078E-4,5C000000,-0724,0972,10877,026.4,045.3,0.400,753.4,01.17,0.508
2013-12-20 03:33:00,5995E-4,5C000000,-0724,0972,10881,026.4,045.3,0.400,753.4,01.17,0.508
2013-12-20 03:34:00,5350E-4,5C000000,-0724,0971,10742,026.4,045.3,0.400,753.4,01.17,0.508
2013-12-20 03:35:00,6551E-4,5C000000,-0724,0972,10831,026.4,045.3,0.400,753.4,01.17,0.508
2013-12-20 03:36:00,7031E-4,5C000000,-0724,0971,10949,026.4,045.3,0.400,753.4,01.17,0.508
2013-12-20 03:37:00,5547E-4,5C000000,-0724,0973,10837,026.4,045.3,0.400,753.4,01.17,0.508
2013-12-20 03:38:00,4818E-4,5C000000,-0724,0973,10786,026.4,045.3,0.400,753.5,01.17,0.508
2013-12-20 03:39:00,5061E-4,5C000000,-0724,0972,10838,026.4,045.3,0.400,753.5,01.17,0.508
2013-12-20 03:40:00,5183E-4,5C000000,-0724,0972,10653,026.4,045.3,0.400,753.5,01.17,0.508
2013-12-20 03:41:00,5452E-4,5C000000,-0724,0972,10915,026.4,045.3,0.400,753.4,01.17,0.508
2013-12-20 03:42:00,4207E-4,5C000000,-0724,0972,10832,026.4,045.3,0.399,753.5,01.17,0.508
2013-12-20 03:43:00,4706E-4,5C000000,-0724,0971,10868,026.4,045.3,0.400,753.4,01.17,0.508
2013-12-20 03:44:00,5129E-4,5C000000,-0724,0972,10750,026.4,045.3,0.400,753.4,01.17,0.508
2013-12-20 03:45:00,4796E-4,5C000000,-0724,0972,10915,026.4,045.3,0.400,753.4,01.17,0.508
2013-12-20 03:46:00,4255E-4,5C000000,-0724,0971,10836,026.4,045.3,0.400,753.4,01.17,0.508
2013-12-20 03:47:00,4667E-4,5C000000,-0724,0971,10952,026.4,045.3,0.400,753.4,01.17,0.508
2013-12-20 03:48:00,4683E-4,5C000000,-0724,0972,10784,026.4,045.3,0.400,753.4,01.17,0.508
2013-12-20 03:49:00,4368E-4,5C000000,-0724,0971,10855,026.4,045.3,0.400,753.4,01.17,0.508
2013-12-20 03:50:00,5981E-4,5C000000,-0724,0972,10905,026.4,045.3,0.400,753.4,01.17,0.508
2013-12-20 03:51:00,5295E-4,5C000000,-0724,0972,10821,026.4,045.3,0.400,753.4,01.17,0.508
2013-12-20 03:52:00,4674E-4,5C000000,-0724,0972,10736,026.4,045.3,0.400,753.4,01.17,0.508
2013-12-20 03:53:00,5200E-4,5C000000,-0724,0973,10630,026.4,045.3,0.399,753.4,01.17,0.508
2013-12-20 03:54:00,4405E-4,5C000000,-0724,0972,10846,026.4,045.3,0.400,753.4,01.17,0.508
2013-12-20 03:55:00,4650E-4,5C000000,-0724,0971,10730,026.4,045.3,0.400,753.4,01.17,0.508
2013-12-20 03:56:00,5673E-4,5C000000,-0724,0972,10820,026.4,045.3,0.400,753.4,01.17,0.508
2013-12-20 03:57:00,6192E-4,5C000000,-0724,0972,10758,026.4,045.3,0.400,753.3,01.17,0.508
2013-12-20 03:58:00,6223E-4,5C000000,-0724,0973,10798,026.4,045.3,0.400,753.4,01.17,0.508
2013-12-20 03:59:00,5204E-4,5C000000,-0724,0972,10906,026.4,045.3,0.400,753.4,01.17,0.508
2013-12-20 04:00:00,5323E-4,5C000000,-0724,0972,10774,026.4,045.3,0.400,753.4,01.17,0.508
2013-12-20 04:01:00,6831E-4,5C000000,-0724,0972,10788,026.4,045.3,0.400,753.4,01.17,0.508
2013-12-20 04:02:00,6448E-4,5C000000,-0724,0971,10552,026.4,045.3,0.400,753.4,01.17,0.508
2013-12-20 04:03:00,6169E-4,5C000000,-0724,0971,10776,026.4,045.3,0.400,753.4,01.17,0.508
2013-12-20 04:04:00,7260E-4,5C000000,-0724,0973,10720,026.4,045.3,0.399,753.4,01.17,0.508
2013-12-20 04:05:00,6285E-4,5C000000,-0724,0972,10817,026.4,045.3,0.400,753.3,01.17,0.508
2013-12-20 04:06:00,5876E-4,5C000000,-0724,0972,10778,026.4,045.3,0.400,753.3,01.17,0.508
2013-12-20 04:07:00,6111E-4,5C000000,-0724,0972,10836,026.4,045.3,0.400,753.3,01.17,0.508
2013-12-20 04:08:00,6047E-4,5C000000,-0724,0972,10802,026.4,045.3,0.400,753.3,01.17,0.508
2013-12-20 04:09:00,6725E-4,5C000000,-0724,0972,10645,026.4,045.3,0.400,753.3,01.17,0.508
2013-12-20 04:10:00,6483E-4,5C000000,-0724,0972,10795,026.4,045.3,0.400,753.3,01.17,0.508
2013-12-20 04:11:00,7779E-4,5C000000,-0724,0972,10846,026.4,045.3,0.400,753.3,01.17,0.508
2013-12-20 04:12:00,6666E-4,5C000000,-0724,0972,10846,026.4,045.3,0.400,753.3,01.17,0.508
2013-12-20 04:13:00,7546E-4,5C000000,-0724,0971,10747,026.4,045.3,0.400,753.3,01.17,0.508
2013-12-20 04:14:00,6306E-4,5C000000,-0724,0971,10912,026.4,045.3,0.400,753.3,01.17,0.508
2013-12-20 04:15:00,8863E-4,5C000000,-0724,0972,10956,026.4,045.3,0.399,753.3,01.17,0.508
2013-12-20 04:16:00,7636E-4,5C000000,-0724,0971,10831,026.4,045.3,0.400,753.2,01.17,0.508
2013-12-20 04:17:00,8249E-4,5C000000,-0724,0972,10767,026.4,045.3,0.400,753.2,01.17,0.508
2013-12-20 04:18:00,7728E-4,5C000000,-0724,0970,10601,026.4,045.3,0.400,753.2,01.17,0.508
2013-12-20 04:19:00,7087E-4,5C000000,-0724,0971,10748,026.4,045.3,0.400,753.2,01.17,0.508
2013-12-20 04:20:00,7355E-4,5C000000,-0724,0971,10793,026.4,045.3,0.399,753.2,01.17,0.508